Home   Weather   Nantes   Past weeks

Flag for France Past Weather in Nantes, Pays de la Loire, France — Yesterday and Last 2 Weeks

Now
46 °F

Broken clouds.


Feels Like: 43 °F
Forecast: 29 / 54 °F
Wind: 7 mph from Northeast

Location: Nantes Airport

Current Time: Apr 25, 2017 at 2:38:45 pm

Latest Report: Apr 25, 2017 at 2:00 pm


Visibility: N/A

Pressure: 29.92 "Hg

Humidity: 87%

Dew Point: 43 °F

Location of NantesLocation

Past Weather in Nantes — Graph

°F

Nantes Temperature Yesterday

Maximum temperature yesterday: 64 °F (at 4:00 pm)
Minimum temperature yesterday: 41 °F (at 7:30 am)
Average temperature yesterday: 55 °F

High & Low Weather Summary for the Past Weeks

 TemperatureHumidityPressure
High68 °F (Apr 10, 4:30 pm)100% (Apr 13, 8:30 am)30.57 "Hg (Apr 13, 8:30 am)
Low37 °F (Apr 20, 6:30 am)21% (Apr 21, 6:00 pm)29.86 "Hg (Apr 25, 6:00 am)
Average53 °F63%30.25 "Hg
* Reported Apr 10 1:00 pm — Apr 25 1:00 pm, Nantes, Weather by CustomWeather, © 2017

Note: Actual official high and low records may vary slightly from our data, if they occured in-between our weather recording intervals... More about our weather records

Advertising

Nantes Weather History for the Previous 24 Hours

Scroll right to see more
 ConditionsComfort  
Time TempWeatherWind HumidityBarometerVisibility
1:00 pm
Tue, Apr 25
45 °FDrizzle. Mostly cloudy.7 mph87%29.92 "HgN/A
12:30 pm45 °FDrizzle. Overcast.9 mph81%29.92 "HgN/A
12:00 pm43 °FLight rain. Mostly cloudy.12 mph87%29.92 "HgN/A
11:30 am45 °FLight rain. More clouds than sun.12 mph87%29.92 "HgN/A
11:00 am46 °FMostly cloudy.13 mph71%29.92 "HgN/A
10:30 am46 °FOvercast.9 mph76%29.92 "HgN/A
10:00 am46 °FOvercast.13 mph82%29.89 "HgN/A
9:30 am48 °FCool.8 mph87%29.89 "HgN/A
9:00 am50 °FPartly sunny.9 mph82%29.89 "HgN/A
8:30 am48 °FMostly cloudy.7 mph87%29.89 "HgN/A
7:30 am48 °FPassing clouds.3 mph87%29.86 "HgN/A
7:00 am46 °FClear.3 mph87%29.86 "Hg10 mi
6:30 am48 °FClear.2 mph87%29.86 "Hg10 mi
6:00 am48 °FClear.2 mph82%29.86 "Hg10 mi
5:30 am48 °FClear.3 mph82%29.89 "Hg10 mi
4:30 am48 °FPassing clouds.5 mph82%29.89 "HgN/A
3:30 am48 °FPassing clouds.6 mph76%29.89 "HgN/A
3:00 am48 °FPassing clouds.6 mph76%29.89 "HgN/A
2:30 am48 °FClear.3 mph76%29.92 "Hg10 mi
2:00 am48 °FClear.5 mph82%29.92 "Hg10 mi
1:30 am50 °FClear.5 mph71%29.92 "Hg10 mi
12:30 am52 °FPassing clouds.5 mph67%29.92 "HgN/A
12:00 am52 °FPassing clouds.5 mph67%29.92 "HgN/A
11:30 pm
Mon, Apr 24
54 °FPassing clouds.6 mph63%29.92 "HgN/A
11:00 pm55 °FPassing clouds.8 mph59%29.92 "HgN/A
10:00 pm57 °FPassing clouds.6 mph55%29.92 "HgN/A
9:30 pm57 °FClear.3 mph51%29.92 "Hg10 mi
9:00 pm59 °FSunny.2 mph48%29.92 "Hg10 mi
8:30 pm61 °FPassing clouds.5 mph48%29.92 "HgN/A
8:00 pm63 °FPassing clouds.6 mph42%29.92 "HgN/A
7:30 pm64 °FPassing clouds.6 mph43%29.92 "HgN/A
7:00 pm64 °FSunny.5 mph43%29.92 "Hg10 mi
6:30 pm64 °FPassing clouds.7 mph37%29.95 "HgN/A
6:00 pm64 °FPassing clouds.5 mph43%29.95 "HgN/A
5:30 pm64 °FPassing clouds.7 mph37%29.95 "HgN/A
5:00 pm64 °FPassing clouds.6 mph40%29.95 "HgN/A
4:30 pm64 °FPassing clouds.6 mph40%29.98 "HgN/A
4:00 pm64 °FPassing clouds.7 mph37%29.98 "HgN/A
3:30 pm63 °FPassing clouds.9 mph39%29.98 "HgN/A
3:00 pm61 °FPassing clouds.8 mph42%30.01 "HgN/A
2:30 pm63 °FPassing clouds.9 mph42%30.01 "HgN/A
2:00 pm63 °FPassing clouds.9 mph45%30.01 "HgN/A
Weather by CustomWeather, © 2017

See weather overviewHow to use our weather pages